Regional Weather Roundup
Issued by NWS

Home | Current Version | Previous Version | Graphics & Text | Print | Product List | Glossary On
Versions: 1 2 3 4 5 6 7 8 9 10 11 12 13 14 15 16 17 18 19 20 21 22 23 24 25 26 27 28 29 30 31 32 33 34 35 36 37 38 39 40 41 42 43 44 45 46 47 48 49 50
598
ASUS43 KLMK 191202
RWRKY
KENTUCKY REGIONAL WEATHER ROUNDUP
NATIONAL WEATHER SERVICE LOUISVILLE KY
800 AM EDT THU APR 19 2018

NOTE "FAIR" INDICATES FEW OR NO CLOUDS BELOW 12,000 FEET
WITH NO SIGNIFICANT WEATHER AND/OR OBSTRUCTIONS TO VISIBILITY.

KYZ001>023-026-027-061>063-070>075-191300-
WESTERN AND SOUTH CENTRAL KENTUCKY

CITY           SKY/WX    TMP DP  RH WIND       PRES   REMARKS
PADUCAH        CLOUDY    40  24  53 N15G24    30.22R WCI  32
HENDERSON      CLOUDY    39  27  62 NW13      30.21R WCI  31
OWENSBORO      CLOUDY    39  26  59 NW14G21   30.19R WCI  31
HOPKINSVILLE   CLOUDY    40  24  53 NW14G21   30.18R WCI  33
BOWLING GREEN  CLOUDY    41  27  57 N9G21     30.16R
GLASGOW        NOT AVBL
$$

KYZ024-025-028>034-038-045-046-053-191300-
NORTH CENTRAL KENTUCKY

CITY           SKY/WX    TMP DP  RH WIND       PRES   REMARKS
LOUISVILLE/SDF FAIR      39  28  64 W16       30.13R WCI  30
LOUISVILLE/LOU CLOUDY    39  29  67 NW14G23   30.13R WCI  31
FORT KNOX      CLOUDY    38  26  63 NW10G20   30.14R WCI  30
$$

KYZ035>037-039>044-047>052-055>060-089>105-191300-
NORTHEAST KENTUCKY

CITY           SKY/WX    TMP DP  RH WIND       PRES   REMARKS
LEXINGTON      CLOUDY    38  27  64 W15G22    30.08R WCI  29
COVINGTON      CLOUDY    37  29  72 NW18      30.05R WCI  27
FRANKFORT      CLOUDY    39  26  59 W9G21     30.08R WCI  33
$$

KYZ054-064>069-076>088-106>120-191300-
SOUTHEAST KENTUCKY

CITY           SKY/WX    TMP DP  RH WIND       PRES   REMARKS
JACKSON        CLOUDY    39  27  62 W12G18    30.02R WCI  32
LONDON         CLOUDY    40  30  67 NW13G26   30.06R WCI  32
SOMERSET       NOT AVBL
MIDDLESBORO    CLOUDY    45  35  67 NW10G21   30.03R
MONTICELLO     CLOUDY    40  30  67 NW16G22   30.12R WCI  31
$$





USA.gov is the U.S. government's official web portal to all federal, state and local government web resources and services.